Time,TemperatureF,DewpointF,PressureIn,WindDirection,WindDirectionDegrees,WindSpeedMPH,WindSpeedGustMPH,Humidity,HourlyPrecipIn,Conditions,Clouds,dailyrainin,SoftwareType,DateUTC
2013-03-04 00:01:00,43.0,37.0,30.19,WNW,301,0.0,2.0,78,99.99,,,-99.99,,2013-03-04 05:01:00,
2013-03-04 00:11:00,43.0,37.0,30.19,WNW,301,0.0,2.0,78,99.99,,,-99.99,,2013-03-04 05:11:00,
2013-03-04 00:22:00,42.0,36.0,30.19,NNW,329,2.0,4.0,80,99.99,,,-99.99,,2013-03-04 05:22:00,
2013-03-04 00:32:00,41.0,36.0,30.19,North,3,3.0,5.0,82,99.99,,,-99.99,,2013-03-04 05:32:00,
2013-03-04 00:42:00,41.0,36.0,30.19,NNE,13,3.0,5.0,82,99.99,,,-99.99,,2013-03-04 05:42:00,
2013-03-04 00:52:00,41.0,36.0,30.19,NNE,13,3.0,5.0,82,99.99,,,-99.99,,2013-03-04 05:52:00,
2013-03-04 01:02:00,40.0,35.0,30.19,North,6,2.0,4.0,83,99.99,,,-99.99,,2013-03-04 06:02:00,
2013-03-04 01:11:00,40.0,35.0,30.19,North,6,2.0,4.0,83,99.99,,,-99.99,,2013-03-04 06:11:00,
2013-03-04 01:22:00,39.0,35.0,30.19,NNE,23,1.0,4.0,84,99.99,,,-99.99,,2013-03-04 06:22:00,
2013-03-04 01:32:00,38.0,34.0,30.18,North,0,0.0,0.0,87,99.99,,,-99.99,,2013-03-04 06:32:00,
2013-03-04 01:42:00,38.0,34.0,30.18,North,0,0.0,0.0,87,99.99,,,-99.99,,2013-03-04 06:42:00,
2013-03-04 01:52:00,37.0,34.0,30.18,North,0,0.0,0.0,87,99.99,,,-99.99,,2013-03-04 06:52:00,
2013-03-04 02:01:00,37.0,34.0,30.18,North,0,0.0,0.0,90,99.99,,,-99.99,,2013-03-04 07:01:00,
2013-03-04 02:11:00,37.0,34.0,30.18,North,0,0.0,0.0,90,99.99,,,-99.99,,2013-03-04 07:11:00,
2013-03-04 02:21:00,36.0,33.0,30.18,North,0,0.0,0.0,90,99.99,,,-99.99,,2013-03-04 07:21:00,
2013-03-04 02:32:00,36.0,34.0,30.18,North,0,0.0,0.0,92,99.99,,,-99.99,,2013-03-04 07:32:00,
2013-03-04 02:42:00,36.0,34.0,30.18,North,0,0.0,0.0,92,99.99,,,-99.99,,2013-03-04 07:42:00,
2013-03-04 02:52:00,36.0,34.0,30.17,North,0,0.0,0.0,93,99.99,,,-99.99,,2013-03-04 07:52:00,
2013-03-04 03:02:00,36.0,34.0,30.17,North,0,0.0,0.0,93,99.99,,,-99.99,,2013-03-04 08:02:00,
2013-03-04 03:11:00,35.0,33.0,30.16,North,0,0.0,0.0,93,99.99,,,-99.99,,2013-03-04 08:11:00,
2013-03-04 03:22:00,35.0,33.0,30.16,North,0,0.0,0.0,93,99.99,,,-99.99,,2013-03-04 08:22:00,
2013-03-04 03:32:00,35.0,34.0,30.16,North,0,0.0,0.0,95,99.99,,,-99.99,,2013-03-04 08:32:00,
2013-03-04 03:42:00,35.0,34.0,30.16,North,0,0.0,0.0,95,99.99,,,-99.99,,2013-03-04 08:42:00,
2013-03-04 03:52:00,35.0,34.0,30.16,North,0,0.0,0.0,95,99.99,,,-99.99,,2013-03-04 08:52:00,
2013-03-04 04:02:00,35.0,34.0,30.16,North,0,0.0,0.0,96,99.99,,,-99.99,,2013-03-04 09:02:00,
2013-03-04 04:11:00,35.0,34.0,30.16,North,0,0.0,0.0,96,99.99,,,-99.99,,2013-03-04 09:11:00,
2013-03-04 04:22:00,35.0,34.0,30.16,North,0,0.0,0.0,96,99.99,,,-99.99,,2013-03-04 09:22:00,
2013-03-04 04:32:00,36.0,35.0,30.16,NNE,20,4.0,7.0,96,99.99,,,-99.99,,2013-03-04 09:32:00,
2013-03-04 04:42:00,36.0,35.0,30.16,NNE,20,4.0,7.0,96,99.99,,,-99.99,,2013-03-04 09:42:00,
2013-03-04 04:52:00,37.0,36.0,30.16,North,359,4.0,7.0,95,99.99,,,-99.99,,2013-03-04 09:52:00,
2013-03-04 05:01:00,39.0,37.0,30.17,NNW,345,5.0,8.0,92,99.99,,,-99.99,,2013-03-04 10:01:00,
2013-03-04 05:11:00,39.0,37.0,30.17,NNW,345,5.0,8.0,92,99.99,,,-99.99,,2013-03-04 10:11:00,
2013-03-04 05:22:00,40.0,37.0,30.18,NW,321,0.0,2.0,89,99.99,,,-99.99,,2013-03-04 10:22:00,
2013-03-04 05:32:00,39.0,35.0,30.18,NNE,13,4.0,6.0,87,99.99,,,-99.99,,2013-03-04 10:32:00,
2013-03-04 05:42:00,39.0,35.0,30.19,North,0,3.0,5.0,87,99.99,,,-99.99,,2013-03-04 10:42:00,
2013-03-04 05:52:00,39.0,35.0,30.19,North,0,3.0,5.0,87,99.99,,,-99.99,,2013-03-04 10:52:00,
2013-03-04 06:02:00,38.0,34.0,30.19,North,356,1.0,5.0,87,99.99,,,-99.99,,2013-03-04 11:02:00,
2013-03-04 06:11:00,38.0,34.0,30.19,North,356,1.0,5.0,87,99.99,,,-99.99,,2013-03-04 11:11:00,
2013-03-04 06:22:00,37.0,34.0,30.20,North,0,0.0,0.0,90,99.99,,,-99.99,,2013-03-04 11:22:00,
2013-03-04 06:32:00,36.0,34.0,30.20,North,0,0.0,0.0,92,99.99,,,-99.99,,2013-03-04 11:32:00,
2013-03-04 06:42:00,36.0,34.0,30.20,North,0,0.0,0.0,92,99.99,,,-99.99,,2013-03-04 11:42:00,
2013-03-04 06:52:00,35.0,33.0,30.21,North,0,0.0,0.0,94,99.99,,,-99.99,,2013-03-04 11:52:00,
2013-03-04 07:01:00,35.0,34.0,30.21,North,0,0.0,0.0,96,99.99,,,-99.99,,2013-03-04 12:01:00,
2013-03-04 07:11:00,34.0,33.0,30.22,North,0,0.0,0.0,95,99.99,,,-99.99,,2013-03-04 12:11:00,
2013-03-04 07:22:00,34.0,33.0,30.22,North,0,0.0,0.0,95,99.99,,,-99.99,,2013-03-04 12:22:00,
2013-03-04 07:32:00,34.0,33.0,30.22,North,0,0.0,0.0,96,99.99,,,-99.99,,2013-03-04 12:32:00,
2013-03-04 07:42:00,34.0,33.0,30.22,North,0,0.0,0.0,96,99.99,,,-99.99,,2013-03-04 12:42:00,
2013-03-04 07:53:00,34.0,33.0,30.22,North,0,0.0,0.0,96,99.99,,,-99.99,,2013-03-04 12:53:00,
2013-03-04 08:02:00,37.0,36.0,30.23,North,0,0.0,0.0,97,99.99,,,-99.99,,2013-03-04 13:02:00,
2013-03-04 08:11:00,37.0,36.0,30.23,North,0,0.0,0.0,97,99.99,,,-99.99,,2013-03-04 13:11:00,
2013-03-04 08:21:00,39.0,38.0,30.24,NNE,24,0.0,4.0,96,99.99,,,-99.99,,2013-03-04 13:21:00,
2013-03-04 08:32:00,44.0,34.0,30.24,North,357,4.0,10.0,69,99.99,,,-99.99,,2013-03-04 13:32:00,
2013-03-04 08:42:00,44.0,34.0,30.24,North,357,4.0,10.0,69,99.99,,,-99.99,,2013-03-04 13:42:00,
2013-03-04 08:52:00,46.0,33.0,30.26,North,350,3.0,9.0,61,99.99,,,-99.99,,2013-03-04 13:52:00,
2013-03-04 09:01:00,46.0,32.0,30.26,North,357,4.0,9.0,58,99.99,,,-99.99,,2013-03-04 14:01:00,
2013-03-04 09:11:00,46.0,32.0,30.26,North,357,4.0,9.0,58,99.99,,,-99.99,,2013-03-04 14:11:00,
2013-03-04 09:22:00,48.0,33.0,30.27,North,353,5.0,10.0,56,99.99,,,-99.99,,2013-03-04 14:22:00,
2013-03-04 09:32:00,48.0,33.0,30.26,NW,322,5.0,8.0,55,99.99,,,-99.99,,2013-03-04 14:32:00,
2013-03-04 09:42:00,48.0,33.0,30.26,NW,322,5.0,8.0,55,99.99,,,-99.99,,2013-03-04 14:42:00,
2013-03-04 09:52:00,49.0,34.0,30.26,NNW,339,5.0,10.0,57,99.99,,,-99.99,,2013-03-04 14:52:00,
2013-03-04 10:01:00,50.0,31.0,30.25,North,352,7.0,11.0,48,99.99,,,-99.99,,2013-03-04 15:01:00,
2013-03-04 10:11:00,50.0,31.0,30.25,North,352,7.0,11.0,48,99.99,,,-99.99,,2013-03-04 15:11:00,
2013-03-04 10:22:00,52.0,31.0,30.25,North,1,5.0,11.0,45,99.99,,,-99.99,,2013-03-04 15:22:00,
2013-03-04 10:32:00,52.0,29.0,30.24,North,4,7.0,12.0,41,99.99,,,-99.99,,2013-03-04 15:32:00,
2013-03-04 10:42:00,52.0,29.0,30.24,North,4,7.0,12.0,41,99.99,,,-99.99,,2013-03-04 15:42:00,
2013-03-04 10:52:00,53.0,32.0,30.24,North,359,6.0,14.0,44,99.99,,,-99.99,,2013-03-04 15:52:00,
2013-03-04 11:02:00,54.0,31.0,30.24,NNW,342,7.0,12.0,42,99.99,,,-99.99,,2013-03-04 16:02:00,
2013-03-04 11:11:00,54.0,31.0,30.24,NNW,342,7.0,12.0,42,99.99,,,-99.99,,2013-03-04 16:11:00,
2013-03-04 11:21:00,54.0,30.0,30.24,North,4,4.0,9.0,39,99.99,,,-99.99,,2013-03-04 16:21:00,
2013-03-04 11:32:00,54.0,28.0,30.23,NNW,345,4.0,7.0,36,99.99,,,-99.99,,2013-03-04 16:32:00,
2013-03-04 11:42:00,54.0,28.0,30.23,NNW,345,4.0,7.0,36,99.99,,,-99.99,,2013-03-04 16:42:00,
2013-03-04 11:52:00,55.0,29.0,30.22,NNE,14,4.0,7.0,37,99.99,,,-99.99,,2013-03-04 16:52:00,
2013-03-04 12:02:00,56.0,30.0,30.22,North,359,4.0,9.0,37,99.99,,,-99.99,,2013-03-04 17:02:00,
2013-03-04 12:11:00,56.0,30.0,30.22,North,359,4.0,9.0,37,99.99,,,-99.99,,2013-03-04 17:11:00,
2013-03-04 12:22:00,56.0,32.0,30.22,North,356,4.0,8.0,40,99.99,,,-99.99,,2013-03-04 17:22:00,
2013-03-04 12:32:00,57.0,30.0,30.21,NNW,336,1.0,5.0,36,99.99,,,-99.99,,2013-03-04 17:32:00,
2013-03-04 12:42:00,57.0,30.0,30.21,NNW,336,1.0,5.0,36,99.99,,,-99.99,,2013-03-04 17:42:00,
2013-03-04 12:52:00,58.0,31.0,30.21,NE,34,4.0,11.0,36,99.99,,,-99.99,,2013-03-04 17:52:00,
2013-03-04 13:02:00,59.0,29.0,30.20,NNW,343,5.0,10.0,32,99.99,,,-99.99,,2013-03-04 18:02:00,
2013-03-04 13:11:00,59.0,29.0,30.20,NNW,343,5.0,10.0,32,99.99,,,-99.99,,2013-03-04 18:11:00,
2013-03-04 13:22:00,59.0,29.0,30.19,North,352,5.0,10.0,32,99.99,,,-99.99,,2013-03-04 18:22:00,
2013-03-04 13:32:00,60.0,29.0,30.19,North,359,4.0,10.0,31,99.99,,,-99.99,,2013-03-04 18:32:00,
2013-03-04 13:42:00,60.0,29.0,30.19,North,359,4.0,10.0,31,99.99,,,-99.99,,2013-03-04 18:42:00,
2013-03-04 13:52:00,61.0,31.0,30.18,NNE,25,4.0,9.0,32,99.99,,,-99.99,,2013-03-04 18:52:00,
2013-03-04 14:02:00,62.0,31.0,30.17,North,7,4.0,8.0,31,99.99,,,-99.99,,2013-03-04 19:02:00,
2013-03-04 14:11:00,62.0,31.0,30.17,North,7,4.0,8.0,31,99.99,,,-99.99,,2013-03-04 19:11:00,
2013-03-04 14:22:00,62.0,29.0,30.16,North,3,5.0,8.0,29,99.99,,,-99.99,,2013-03-04 19:22:00,
2013-03-04 14:32:00,62.0,30.0,30.15,North,1,3.0,8.0,30,99.99,,,-99.99,,2013-03-04 19:32:00,
2013-03-04 14:42:00,62.0,30.0,30.15,North,1,3.0,8.0,30,99.99,,,-99.99,,2013-03-04 19:42:00,
2013-03-04 14:52:00,63.0,29.0,30.15,NNW,347,4.0,7.0,28,99.99,,,-99.99,,2013-03-04 19:52:00,
2013-03-04 15:02:00,64.0,30.0,30.15,North,359,4.0,8.0,28,99.99,,,-99.99,,2013-03-04 20:02:00,
2013-03-04 15:11:00,64.0,29.0,30.15,WNW,287,3.0,5.0,27,99.99,,,-99.99,,2013-03-04 20:11:00,
2013-03-04 15:22:00,64.0,29.0,30.15,WNW,287,3.0,5.0,27,99.99,,,-99.99,,2013-03-04 20:22:00,
2013-03-04 15:32:00,65.0,28.0,30.15,West,278,3.0,6.0,25,99.99,,,-99.99,,2013-03-04 20:32:00,
2013-03-04 15:42:00,65.0,28.0,30.15,West,278,3.0,6.0,25,99.99,,,-99.99,,2013-03-04 20:42:00,
2013-03-04 15:53:00,65.0,30.0,30.14,North,3,4.0,8.0,27,99.99,,,-99.99,,2013-03-04 20:53:00,
2013-03-04 16:02:00,65.0,28.0,30.14,NW,321,2.0,6.0,25,99.99,,,-99.99,,2013-03-04 21:02:00,
2013-03-04 16:12:00,65.0,28.0,30.14,NW,321,2.0,6.0,25,99.99,,,-99.99,,2013-03-04 21:12:00,
2013-03-04 16:22:00,66.0,28.0,30.14,NNW,328,2.0,5.0,24,99.99,,,-99.99,,2013-03-04 21:22:00,
2013-03-04 16:32:00,66.0,29.0,30.14,North,0,0.0,0.0,25,99.99,,,-99.99,,2013-03-04 21:32:00,
2013-03-04 16:42:00,66.0,29.0,30.14,North,0,0.0,0.0,25,99.99,,,-99.99,,2013-03-04 21:42:00,
2013-03-04 16:53:00,67.0,29.0,30.14,WNW,287,2.0,7.0,24,99.99,,,-99.99,,2013-03-04 21:53:00,
2013-03-04 17:02:00,67.0,28.0,30.14,North,0,0.0,0.0,23,99.99,,,-99.99,,2013-03-04 22:02:00,
2013-03-04 17:12:00,67.0,28.0,30.14,North,0,0.0,0.0,23,99.99,,,-99.99,,2013-03-04 22:12:00,
2013-03-04 17:22:00,67.0,33.0,30.14,ESE,113,3.0,5.0,28,99.99,,,-99.99,,2013-03-04 22:22:00,
2013-03-04 17:32:00,67.0,34.0,30.14,SE,139,1.0,3.0,29,99.99,,,-99.99,,2013-03-04 22:32:00,
2013-03-04 17:42:00,67.0,34.0,30.14,SE,139,1.0,3.0,29,99.99,,,-99.99,,2013-03-04 22:42:00,
2013-03-04 17:52:00,67.0,34.0,30.14,ESE,104,1.0,4.0,29,99.99,,,-99.99,,2013-03-04 22:52:00,
2013-03-04 18:02:00,66.0,34.0,30.14,North,0,0.0,0.0,30,99.99,,,-99.99,,2013-03-04 23:02:00,
2013-03-04 18:11:00,66.0,34.0,30.14,North,0,0.0,0.0,30,99.99,,,-99.99,,2013-03-04 23:11:00,
2013-03-04 18:22:00,65.0,34.0,30.15,North,0,0.0,0.0,32,99.99,,,-99.99,,2013-03-04 23:22:00,
2013-03-04 18:32:00,63.0,36.0,30.16,North,0,0.0,0.0,36,99.99,,,-99.99,,2013-03-04 23:32:00,
2013-03-04 18:42:00,63.0,36.0,30.16,North,0,0.0,0.0,36,99.99,,,-99.99,,2013-03-04 23:42:00,
2013-03-04 18:52:00,60.0,36.0,30.16,North,0,0.0,0.0,41,99.99,,,-99.99,,2013-03-04 23:52:00,
2013-03-04 19:02:00,58.0,37.0,30.17,ESE,108,0.0,2.0,45,99.99,,,-99.99,,2013-03-05 00:02:00,
2013-03-04 19:12:00,58.0,37.0,30.17,ESE,108,0.0,2.0,45,99.99,,,-99.99,,2013-03-05 00:12:00,
2013-03-04 19:22:00,56.0,36.0,30.16,North,0,0.0,0.0,47,99.99,,,-99.99,,2013-03-05 00:22:00,
2013-03-04 19:32:00,55.0,36.0,30.17,North,0,0.0,0.0,48,99.99,,,-99.99,,2013-03-05 00:32:00,
2013-03-04 19:42:00,55.0,36.0,30.17,North,0,0.0,0.0,48,99.99,,,-99.99,,2013-03-05 00:42:00,
2013-03-04 19:52:00,54.0,35.0,30.17,North,0,0.0,0.0,49,99.99,,,-99.99,,2013-03-05 00:52:00,
2013-03-04 20:01:00,53.0,35.0,30.17,North,0,0.0,0.0,50,99.99,,,-99.99,,2013-03-05 01:01:00,
2013-03-04 20:12:00,53.0,35.0,30.17,North,0,0.0,0.0,50,99.99,,,-99.99,,2013-03-05 01:12:00,
2013-03-04 20:22:00,53.0,36.0,30.17,North,0,0.0,0.0,53,99.99,,,-99.99,,2013-03-05 01:22:00,
2013-03-04 20:32:00,51.0,36.0,30.17,North,0,0.0,0.0,56,99.99,,,-99.99,,2013-03-05 01:32:00,
2013-03-04 20:42:00,51.0,36.0,30.17,North,0,0.0,0.0,56,99.99,,,-99.99,,2013-03-05 01:42:00,
2013-03-04 20:52:00,50.0,36.0,30.18,North,0,0.0,0.0,59,99.99,,,-99.99,,2013-03-05 01:52:00,
2013-03-04 21:02:00,49.0,36.0,30.18,North,0,0.0,0.0,60,99.99,,,-99.99,,2013-03-05 02:02:00,
2013-03-04 21:11:00,49.0,36.0,30.18,North,0,0.0,0.0,60,99.99,,,-99.99,,2013-03-05 02:11:00,
2013-03-04 21:22:00,48.0,36.0,30.17,North,0,0.0,0.0,63,99.99,,,-99.99,,2013-03-05 02:22:00,
2013-03-04 21:32:00,49.0,36.0,30.18,ESE,110,5.0,8.0,60,99.99,,,-99.99,,2013-03-05 02:32:00,
2013-03-04 21:42:00,49.0,36.0,30.18,ESE,110,5.0,8.0,60,99.99,,,-99.99,,2013-03-05 02:42:00,
2013-03-04 21:53:00,51.0,37.0,30.18,SE,134,3.0,5.0,59,99.99,,,-99.99,,2013-03-05 02:53:00,
2013-03-04 22:02:00,52.0,40.0,30.19,ESE,122,5.0,8.0,64,99.99,,,-99.99,,2013-03-05 03:02:00,
2013-03-04 22:12:00,53.0,42.0,30.19,ESE,108,5.0,9.0,67,99.99,,,-99.99,,2013-03-05 03:12:00,
2013-03-04 22:22:00,53.0,42.0,30.19,ESE,108,5.0,9.0,67,99.99,,,-99.99,,2013-03-05 03:22:00,
2013-03-04 22:32:00,53.0,42.0,30.19,ESE,114,5.0,8.0,66,99.99,,,-99.99,,2013-03-05 03:32:00,
2013-03-04 22:42:00,53.0,42.0,30.19,ESE,114,5.0,8.0,66,99.99,,,-99.99,,2013-03-05 03:42:00,
2013-03-04 22:52:00,52.0,41.0,30.19,ESE,121,5.0,7.0,67,99.99,,,-99.99,,2013-03-05 03:52:00,
2013-03-04 23:02:00,52.0,42.0,30.19,SE,134,4.0,6.0,69,99.99,,,-99.99,,2013-03-05 04:02:00,
2013-03-04 23:12:00,52.0,42.0,30.19,SE,134,4.0,6.0,69,99.99,,,-99.99,,2013-03-05 04:12:00,
2013-03-04 23:22:00,52.0,43.0,30.19,SSE,148,4.0,7.0,72,99.99,,,-99.99,,2013-03-05 04:22:00,
2013-03-04 23:32:00,51.0,42.0,30.19,South,187,6.0,9.0,71,99.99,,,-99.99,,2013-03-05 04:32:00,
2013-03-04 23:42:00,51.0,42.0,30.19,South,187,6.0,9.0,71,99.99,,,-99.99,,2013-03-05 04:42:00,
2013-03-04 23:52:00,49.0,40.0,30.19,South,183,3.0,6.0,72,99.99,,,-99.99,,2013-03-05 04:52:00,